When you browse on this site, cookies collect data to enhance your experience and personalize the content and advertising you see.
Visit our Privacy Policy to learn more. By continuing to use the site, you agree to this use of cookies and data.
  • En España
  • Lista de países
  • Para 7 días
  • Temperatura del agua
  • El tiempo en el mapa
  • Informadores
  • user-avatar
    Iniciar sesión

    Tiempo cada hora Canberra

    Hoy, 4 Abril, Sábado

    Tiempo Temperatura Precipitaciones Viento Presión Humedad
    00:00 +15°C° 0 mm 2 mps 698 mmHg 96%
    01:00 +15°C° 0 mm 2 mps 697 mmHg 96%
    02:00 +15°C° 1.4 mm 2 mps 696 mmHg 96%
    03:00 +15°C° 1.4 mm 2 mps 695 mmHg 97%
    04:00 +16°C° 0 mm 2 mps 694 mmHg 98%
    05:00 +14°C° 2.1 mm 3 mps 695 mmHg 97%
    06:00 +14°C° 2.1 mm 4 mps 695 mmHg 96%
    07:00 +14°C° 2.1 mm 4 mps 695 mmHg 96%
    08:00 +14°C° 0 mm 6 mps 696 mmHg 87%
    09:00 +13°C° 0 mm 8 mps 696 mmHg 78%
    10:00 +13°C° 0 mm 10 mps 697 mmHg 69%
    11:00 +13°C° 0 mm 10 mps 697 mmHg 65%
    12:00 +14°C° 0 mm 10 mps 697 mmHg 60%
    13:00 +14°C° 0 mm 10 mps 697 mmHg 56%
    14:00 +13°C° 0 mm 9 mps 698 mmHg 60%
    15:00 +12°C° 0 mm 9 mps 698 mmHg 64%
    16:00 +11°C° 0 mm 9 mps 699 mmHg 71%
    17:00 +10°C° 0.1 mm 8 mps 700 mmHg 71%
    18:00 +10°C° 0.1 mm 8 mps 701 mmHg 72%
    19:00 +9°C° 0.1 mm 7 mps 702 mmHg 72%
    20:00 +9°C° 0 mm 7 mps 702 mmHg 72%
    21:00 +8°C° 0 mm 6 mps 703 mmHg 72%
    22:00 +8°C° 0 mm 6 mps 703 mmHg 72%
    23:00 +7°C° 0 mm 6 mps 704 mmHg 73%

    Mañana, 5 Abril, Domingo

    Tiempo Temperatura Precipitaciones Viento Presión Humedad
    00:00 +7°C° 0 mm 6 mps 704 mmHg 75%
    01:00 +7°C° 0 mm 6 mps 704 mmHg 76%
    02:00 +6°C° 0 mm 5 mps 704 mmHg 77%
    03:00 +6°C° 0 mm 5 mps 704 mmHg 78%
    04:00 +6°C° 0 mm 4 mps 705 mmHg 79%
    05:00 +6°C° 0 mm 4 mps 705 mmHg 78%
    06:00 +5°C° 0 mm 5 mps 705 mmHg 77%
    07:00 +5°C° 0 mm 5 mps 705 mmHg 76%
    08:00 +7°C° 0 mm 6 mps 706 mmHg 69%
    09:00 +8°C° 0 mm 7 mps 706 mmHg 62%
    10:00 +10°C° 0 mm 8 mps 706 mmHg 55%
    11:00 +10°C° 0 mm 7 mps 706 mmHg 57%
    12:00 +11°C° 0 mm 7 mps 706 mmHg 58%
    13:00 +11°C° 0 mm 7 mps 706 mmHg 60%
    14:00 +11°C° 0 mm 7 mps 706 mmHg 62%
    15:00 +11°C° 0 mm 6 mps 706 mmHg 65%
    16:00 +11°C° 0 mm 6 mps 706 mmHg 67%
    17:00 +10°C° 0 mm 5 mps 706 mmHg 70%
    18:00 +10°C° 0 mm 5 mps 707 mmHg 72%
    19:00 +11°C° 0 mm 4 mps 707 mmHg 75%
    20:00 +11°C° 0 mm 4 mps 708 mmHg 75%
    21:00 +10°C° 0 mm 5 mps 708 mmHg 75%
    22:00 +10°C° 0 mm 5 mps 709 mmHg 75%
    23:00 +11°C° 0 mm 4 mps 709 mmHg 77%

    Pasado mañana, 6 Abril, Lunes

    Tiempo Temperatura Precipitaciones Viento Presión Humedad
    00:00 +11°C° 0 mm 4 mps 709 mmHg 79%
    01:00 +10°C° 0 mm 3 mps 709 mmHg 81%
    02:00 +10°C° 0 mm 3 mps 709 mmHg 82%
    03:00 +10°C° 0 mm 3 mps 709 mmHg 82%
    04:00 +10°C° 0 mm 3 mps 709 mmHg 82%
    05:00 +10°C° 0 mm 3 mps 709 mmHg 84%
    06:00 +10°C° 0 mm 3 mps 710 mmHg 86%
    07:00 +10°C° 0 mm 2 mps 710 mmHg 88%
    08:00 +11°C° 0 mm 3 mps 711 mmHg 79%
    09:00 +13°C° 0 mm 3 mps 711 mmHg 70%
    10:00 +16°C° 0 mm 3 mps 711 mmHg 62%
    11:00 +17°C° 0 mm 3 mps 711 mmHg 59%
    12:00 +18°C° 0 mm 3 mps 711 mmHg 56%
    13:00 +18°C° 0 mm 3 mps 711 mmHg 54%
    14:00 +18°C° 0 mm 3 mps 711 mmHg 55%
    15:00 +18°C° 0 mm 3 mps 711 mmHg 57%
    16:00 +17°C° 0 mm 3 mps 711 mmHg 59%
    17:00 +16°C° 0 mm 2 mps 711 mmHg 68%
    18:00 +14°C° 0 mm 2 mps 711 mmHg 76%
    19:00 +12°C° 0 mm 1 mps 712 mmHg 85%
    20:00 +12°C° 0.1 mm 1 mps 712 mmHg 87%
    21:00 +12°C° 0.1 mm 1 mps 713 mmHg 89%
    22:00 +12°C° 0.1 mm 2 mps 713 mmHg 91%
    23:00 +12°C° 0.1 mm 2 mps 713 mmHg 92%

    7 Abril, Martes

    Tiempo Temperatura Precipitaciones Viento Presión Humedad
    00:00 +12°C° 0.1 mm 1 mps 713 mmHg 93%
    01:00 +12°C° 0.1 mm 1 mps 713 mmHg 94%
    02:00 +12°C° 0.1 mm 1 mps 713 mmHg 94%
    03:00 +12°C° 0.1 mm 1 mps 713 mmHg 94%
    04:00 +11°C° 0.1 mm 1 mps 713 mmHg 94%
    05:00 +11°C° 0 mm 1 mps 713 mmHg 93%
    06:00 +11°C° 0 mm 1 mps 713 mmHg 93%
    07:00 +11°C° 0 mm 1 mps 713 mmHg 93%
    08:00 +12°C° 0 mm 1 mps 713 mmHg 88%
    09:00 +13°C° 0 mm 2 mps 714 mmHg 82%
    10:00 +15°C° 0 mm 2 mps 714 mmHg 77%
    11:00 +16°C° 0.1 mm 2 mps 713 mmHg 72%
    12:00 +18°C° 0.1 mm 1 mps 713 mmHg 68%
    13:00 +19°C° 0.1 mm 1 mps 713 mmHg 63%
    14:00 +17°C° 0.1 mm 2 mps 713 mmHg 65%
    15:00 +17°C° 0.1 mm 2 mps 712 mmHg 67%
    16:00 +17°C° 0.1 mm 2 mps 712 mmHg 69%
    17:00 +15°C° 0 mm 2 mps 712 mmHg 75%
    18:00 +14°C° 0 mm 2 mps 712 mmHg 82%
    19:00 +13°C° 0 mm 2 mps 712 mmHg 88%
    20:00 +13°C° 0 mm 2 mps 713 mmHg 89%
    21:00 +13°C° 0 mm 2 mps 713 mmHg 90%
    22:00 +12°C° 0 mm 2 mps 713 mmHg 91%
    23:00 +12°C° 0 mm 2 mps 713 mmHg 91%

    8 Abril, Miércoles

    Tiempo Temperatura Precipitaciones Viento Presión Humedad
    00:00 +12°C° 0 mm 1 mps 713 mmHg 91%
    01:00 +12°C° 0 mm 1 mps 713 mmHg 91%
    02:00 +12°C° 0.1 mm 1 mps 713 mmHg 91%
    03:00 +12°C° 0.1 mm 1 mps 713 mmHg 91%
    04:00 +12°C° 0.1 mm 2 mps 713 mmHg 92%
    05:00 +12°C° 0 mm 2 mps 713 mmHg 92%
    06:00 +12°C° 0 mm 2 mps 714 mmHg 91%
    07:00 +12°C° 0 mm 2 mps 714 mmHg 91%
    08:00 +13°C° 0.1 mm 2 mps 714 mmHg 89%
    09:00 +13°C° 0.1 mm 2 mps 714 mmHg 87%
    10:00 +12°C° 0.1 mm 3 mps 715 mmHg 85%
    11:00 +13°C° 0.2 mm 3 mps 715 mmHg 80%
    12:00 +14°C° 0.2 mm 3 mps 715 mmHg 75%
    13:00 +16°C° 0.2 mm 3 mps 715 mmHg 70%
    14:00 +16°C° 0.3 mm 3 mps 715 mmHg 73%
    15:00 +14°C° 0.3 mm 4 mps 715 mmHg 76%
    16:00 +14°C° 0.3 mm 4 mps 715 mmHg 79%
    17:00 +13°C° 0 mm 4 mps 715 mmHg 82%
    18:00 +12°C° 0 mm 4 mps 716 mmHg 85%
    19:00 +11°C° 0 mm 3 mps 716 mmHg 88%
    20:00 +11°C° 0 mm 3 mps 716 mmHg 88%
    21:00 +10°C° 0 mm 3 mps 716 mmHg 89%
    22:00 +10°C° 0 mm 3 mps 717 mmHg 89%
    23:00 +9°C° 0 mm 3 mps 717 mmHg 90%

    9 Abril, Jueves

    Tiempo Temperatura Precipitaciones Viento Presión Humedad
    00:00 +9°C° 0 mm 3 mps 717 mmHg 91%
    01:00 +9°C° 0 mm 3 mps 717 mmHg 92%
    02:00 +9°C° 0 mm 3 mps 717 mmHg 92%
    03:00 +9°C° 0 mm 3 mps 717 mmHg 93%
    04:00 +9°C° 0 mm 3 mps 717 mmHg 93%
    05:00 +9°C° 0 mm 2 mps 717 mmHg 93%
    06:00 +9°C° 0 mm 2 mps 717 mmHg 93%
    07:00 +9°C° 0 mm 2 mps 718 mmHg 93%
    08:00 +11°C° 0 mm 3 mps 718 mmHg 85%
    09:00 +13°C° 0 mm 3 mps 718 mmHg 77%
    10:00 +16°C° 0 mm 3 mps 718 mmHg 69%
    11:00 +17°C° 0 mm 3 mps 718 mmHg 66%
    12:00 +18°C° 0 mm 3 mps 718 mmHg 64%
    13:00 +18°C° 0 mm 3 mps 717 mmHg 62%
    14:00 +18°C° 0 mm 3 mps 717 mmHg 63%
    15:00 +18°C° 0 mm 2 mps 717 mmHg 64%
    16:00 +18°C° 0 mm 2 mps 716 mmHg 66%
    17:00 +16°C° 0 mm 2 mps 717 mmHg 74%
    18:00 +14°C° 0 mm 2 mps 717 mmHg 83%
    19:00 +13°C° 0 mm 2 mps 717 mmHg 92%
    20:00 +12°C° 0 mm 1 mps 717 mmHg 93%
    21:00 +12°C° 0 mm 1 mps 717 mmHg 94%
    22:00 +10°C° 0 mm 0 mps 717 mmHg 95%
    23:00 +11°C° 0 mm 0 mps 717 mmHg 95%
    Mostrar más